EUTELSAT HOTBIRD 13C

Last updated on Sun Jun 21 2026 00:03:04 GMT+0000 (Coordinated Universal Time)

1 33459U 08065A 26171.38201711 -.00000288 00000+0 00000+0 0 9990 2 33459 2.9595 79.1570 0003462 9.9025 266.7513 1.00269969 47378
UTC large
Height (km)
Speed (km/s)
/
Latitude / Longitude
Inclination (degrees)
Orbital Period (minutes)
Azimuth
Elevation
Range (km)
Doppler Factor

Next 0 passes for location: London (51.5072 / 0.1276)

No passes found over London.
EUTELSAT HOTBIRD 13C